Location: *
(43.0409°N, 0.1694°E)
Time: 13:27:02
(UTC+00:00)

Cosmos 1328 Rocket - Pass Details

Date: 03 October 2023
Orbit: 599 x 623 km, 82.5° (Epoch: 01 December)

Event Time Altitude Azimuth Distance (km) Brightness Sun altitude
Rises 04:23:03 0° 177° (S) 2,889 6.9 -18.2°
Reaches altitude 10° 04:25:18 10° 174° (S) 1,985 6.1 -17.8°
Maximum altitude 04:29:37 60° 95° (E) 713 4.1 -17.0°
Drops below altitude 10° 04:33:58 10° 16° (NNE) 1,990 6.5 -16.2°
Sets 04:36:13 0° 12° (NNE) 2,896 7.3 -15.8°
